Location: Bathurst
(33.4193°S, 149.5775°E)
Time: 10:45:07
(UTC+10:00)

Vanguard 1 Rocket - Pass Details

Date: 20 June 2021
Orbit: 650 x 4226 km, 34.3° (Epoch: 02 August)

Event Time Altitude Azimuth Distance (km) Brightness Sun altitude
Rises 06:12:59 0° 327° (NNW) 8,405 12.2 -10.7°
Reaches altitude 10° 06:19:31 10° 333° (NNW) 7,419 12.0 -9.5°
Maximum altitude 06:41:59 42° 33° (NNE) 4,463 11.5 -5.2°
Drops below altitude 10° 06:56:57 10° 97° (E) 5,140 12.3 -2.4°
Sets 07:00:23 0° 104° (ESE) 5,739 12.4 -1.7°
